Location: Piotrkow Trybunalski
(51.4000°N, 19.6830°E)
Time: 15:09:18
(UTC+01:00)

Vanguard 2 - Pass Details

Date: 07 February 2023
Orbit: 553 x 2927 km, 32.9° (Epoch: 24 March)

Event Time Altitude Azimuth Distance (km) Brightness Sun altitude
Rises 03:02:31 0° 270° (W) 6,596 - -38.3°
Reaches altitude 10° 03:09:21 10° 253° (WSW) 5,736 - -37.3°
Maximum altitude 03:18:19 16° 222° (SW) 5,171 - -36.0°
Exits shadow 03:26:55 10° 191° (S) 5,442 11.6 -34.8°
Drops below altitude 10° 03:26:57 10° 191° (S) 5,444 11.6 -34.8°
Sets 03:33:14 0° 173° (S) 6,112 12.0 -33.9°
